QPF
0.03 0.04 0.03 0.02 0.02 0.02 0.02 0.02 0.03 0.02 0.02 0.01 0.01 0.02 0.02 0.02 0.04 0.03 0.03 0.03 0.03 0.04 0.04 0.04 0.03 0.03 0.03 0.04 0.05 0.06 0.06 0.05 0.05 0.05 0.05 0.06 0.07 0.12
0.02 0.03 0.03 0.03 0.02 0.01 0.01 0.01 0.01 0.02 0.02 0.01 0.02 0.02 0.01 0.02 0.04 0.04 0.03 0.02 0.02 0.02 0.03 0.04 0.03 0.04 0.03 0.04 0.05 0.06 0.05 0.04 0.03 0.03 0.04 0.05 0.06 0.07
0.02 0.03 0.03 0.03 0.03 0.02 0.01 0.02 0.02 0.01 0.01 0.01 0.02 0.01 0.01 0.02 0.03 0.03 0.02 0.02 0.02 0.03 0.03 0.03 0.03 0.03 0.04 0.04 0.04 0.04 0.04 0.04 0.04 0.04 0.04 0.05 0.05 0.06
0.02 0.02 0.01 0.01 0.02 0.02 0.01 0.01 0.01 0.01 0.01 0.01 0.02 0.02 0.02 0.02 0.03 0.03 0.03 0.03 0.03 0.03 0.04 0.03 0.02 0.02 0.02 0.02 0.02 0.02 0.03 0.03 0.04 0.04 0.04 0.03 0.04 0.04
0.02 0.02 0.03 0.02 0.02 0.01 0.01 0.01 0.01 0.01 0.01 0.02 0.02 0.03 0.02 0.02 0.03 0.02 0.02 0.02 0.03 0.03 0.03 0.04 0.03 0.03 0.02 0.02 0.02 0.02 0.02 0.03 0.03 0.04 0.04 0.04 0.04 0.04
0.04 0.03 0.03 0.02 0.02 0.02 0.01 0.01 0.01 0.01 0.02 0.02 0.02 0.02 0.02 0.01 0.02 0.02 0.01 0.01 0.01 0.01 0.02 0.03 0.04 0.03 0.02 0.01 0.01 0.01 0.01 0.01 0.02 0.02 0.03 0.03 0.03 0.03
0.03 0.03 0.03 0.03 0.02 0.01 0.01 0.02 0.02 0.02 0.02 0.03 0.04 0.04 0.03 0.02 0.01 0.01 0.00 0.01 0.01 0.01 0.01 0.02 0.03 0.02 0.02 0.01 0.01 0.00 0.00 0.00 0.00 0.00 0.01 0.01 0.02 0.03
0.02 0.02 0.03 0.02 0.01 0.01 0.01 0.02 0.02 0.02 0.02 0.02 0.03 0.03 0.04 0.03 0.02 0.01 0.01 0.01 0.01 0.01 0.01 0.01 0.01 0.01 0.01 0.01 0.01 0.01 0.00 0.00 0.00 0.00 0.00 0.01 0.01 0.01
0.02 0.02 0.02 0.02 0.01 0.01 0.01 0.01 0.01 0.01 0.02 0.02 0.02 0.01 0.02 0.02 0.02 0.01 0.01 0.01 0.01 0.00 0.00 0.00 0.00 0.00 0.00 0.01 0.01 0.01 0.00 0.00 0.00 0.00 0.00 0.01 0.01 0.01
0.02 0.02 0.02 0.02 0.01 0.01 0.01 0.02 0.02 0.02 0.01 0.00 0.00 0.00 0.01 0.01 0.01 0.01 0.01 0.01 0.01 0.01 0.00 0.00 0.00 0.00 0.00 0.00 0.01 0.01 0.01 0.00 0.01 0.01 0.02 0.03 0.04 0.04
0.01 0.02 0.02 0.02 0.02 0.02 0.02 0.02 0.01 0.01 0.01 0.01 0.01 0.01 0.01 0.01 0.01 0.00 0.01 0.01 0.01 0.02 0.01 0.01 0.00 0.00 0.00 0.00 0.00 0.00 0.01 0.00 0.01 0.01 0.02 0.03 0.04 0.04
0.01 0.01 0.01 0.02 0.02 0.01 0.01 0.01 0.01 0.01 0.01 0.01 0.01 0.01 0.01 0.01 0.02 0.01 0.01 0.01 0.01 0.01 0.01 0.01 0.00 0.00 0.00 0.00 0.00 0.00 0.00 0.00 0.00 0.01 0.01 0.02 0.02 0.02
0.01 0.01 0.02 0.02 0.01 0.00 0.00 0.00 0.00 0.00 0.00 0.00 0.01 0.01 0.02 0.02 0.02 0.02 0.01 0.01 0.01 0.01 0.01 0.01 0.01 0.00 0.00 0.00 0.00 0.00 0.00 0.00 0.00 0.00 0.01 0.01 0.01 0.00
0.00 0.00 0.01 0.01 0.00 0.00 0.00 0.00 0.00 0.00 0.00 0.00 0.00 0.01 0.02 0.03 0.03 0.03 0.03 0.03 0.03 0.03 0.03 0.02 0.01 0.01 0.01 0.01 0.00 0.00 0.00 0.00 0.00 0.00 0.01 0.01 0.01 0.01
0.00 0.00 0.00 0.01 0.00 0.00 0.00 0.00 0.00 0.00 0.00 0.00 0.00 0.00 0.01 0.02 0.03 0.04 0.04 0.04 0.04 0.03 0.03 0.02 0.01 0.01 0.01 0.02 0.02 0.01 0.01 0.01 0.00 0.00 0.01 0.01 0.02 0.02
0.01 0.00 0.00 0.00 0.00 0.00 0.00 0.00 0.00 0.00 0.01 0.01 0.00 0.00 0.00 0.01 0.01 0.02 0.02 0.03 0.03 0.03 0.03 0.02 0.02 0.02 0.02 0.02 0.02 0.02 0.01 0.01 0.01 0.01 0.01 0.01 0.02 0.02
0.01 0.00 0.00 0.00 0.00 0.00 0.00 0.00 0.00 0.00 0.00 0.00 0.00 0.00 0.00 0.01 0.01 0.01 0.01 0.01 0.02 0.02 0.02 0.03 0.03 0.02 0.02 0.02 0.02 0.02 0.02 0.02 0.01 0.01 0.01 0.01 0.01 0.01
0.01 0.00 0.00 0.00 0.00 0.00 0.00 0.00 0.00 0.00 0.00 0.00 0.00 0.00 0.01 0.01 0.01 0.01 0.01 0.02 0.02 0.03 0.03 0.03 0.04 0.04 0.03 0.02 0.02 0.02 0.02 0.03 0.02 0.02 0.01 0.01 0.01 0.02
0.01 0.00 0.00 0.01 0.01 0.01 0.01 0.00 0.00 0.00 0.00 0.01 0.01 0.01 0.01 0.01 0.01 0.02 0.02 0.03 0.04 0.05 0.05 0.04 0.05 0.06 0.06 0.04 0.03 0.03 0.03 0.03 0.03 0.03 0.02 0.02 0.02 0.02
0.01 0.00 0.01 0.01 0.01 0.01 0.01 0.01 0.01 0.00 0.00 0.01 0.01 0.01 0.01 0.01 0.02 0.03 0.04 0.04 0.03 0.04 0.05 0.05 0.05 0.04 0.05 0.06 0.05 0.05 0.04 0.04 0.04 0.03 0.03 0.02 0.03 0.03
0.01 0.01 0.01 0.01 0.01 0.01 0.01 0.01 0.01 0.01 0.01 0.01 0.01 0.01 0.02 0.02 0.03 0.03 0.02 0.02 0.02 0.03 0.05 0.06 0.05 0.05 0.05 0.04 0.04 0.04 0.03 0.03 0.02 0.02 0.02 0.03 0.03 0.03
0.02 0.02 0.03 0.03 0.02 0.02 0.02 0.02 0.02 0.02 0.01 0.01 0.02 0.03 0.03 0.03 0.03 0.02 0.01 0.01 0.02 0.02 0.03 0.03 0.04 0.04 0.04 0.05 0.04 0.03 0.03 0.02 0.02 0.02 0.03 0.03 0.02 0.02
0.03 0.03 0.03 0.03 0.03 0.03 0.03 0.03 0.02 0.02 0.02 0.03 0.03 0.03 0.02 0.02 0.02 0.02 0.01 0.01 0.02 0.03 0.02 0.03 0.05 0.04 0.03 0.03 0.03 0.03 0.02 0.02 0.02 0.02 0.03 0.03 0.02 0.01
MSLP
1016.75 1016.67 1016.68 1016.79 1017.01 1017.32 1017.70 1018.14 1018.59 1019.05 1019.49 1019.88 1020.21 1020.47 1020.65 1020.75 1020.78 1020.75 1020.66 1020.51 1020.33 1020.10 1019.84 1019.55 1019.24 1018.92 1018.61 1018.35 1018.15 1018.05 1018.07 1018.22 1018.49 1018.87 1019.33 1019.85 1020.39 1020.91
1016.92 1016.80 1016.75 1016.77 1016.89 1017.10 1017.39 1017.76 1018.20 1018.66 1019.14 1019.61 1020.03 1020.40 1020.69 1020.89 1021.01 1021.04 1021.01 1020.92 1020.79 1020.63 1020.44 1020.25 1020.05 1019.86 1019.68 1019.54 1019.45 1019.42 1019.47 1019.61 1019.84 1020.13 1020.50 1020.90 1021.32 1021.73
1017.14 1017.00 1016.90 1016.85 1016.87 1016.98 1017.18 1017.48 1017.87 1018.33 1018.84 1019.36 1019.87 1020.33 1020.71 1021.01 1021.21 1021.32 1021.35 1021.31 1021.23 1021.12 1021.01 1020.90 1020.80 1020.73 1020.67 1020.64 1020.64 1020.68 1020.77 1020.91 1021.09 1021.32 1021.60 1021.90 1022.22 1022.54
1017.33 1017.20 1017.07 1016.97 1016.92 1016.95 1017.08 1017.31 1017.65 1018.09 1018.61 1019.17 1019.74 1020.28 1020.75 1021.13 1021.40 1021.58 1021.67 1021.68 1021.65 1021.60 1021.54 1021.50 1021.49 1021.50 1021.53 1021.59 1021.67 1021.76 1021.88 1022.01 1022.17 1022.36 1022.56 1022.80 1023.04 1023.31
1017.44 1017.34 1017.21 1017.10 1017.01 1016.99 1017.06 1017.24 1017.53 1017.95 1018.46 1019.04 1019.65 1020.24 1020.77 1021.22 1021.57 1021.80 1021.95 1022.01 1022.03 1022.02 1022.02 1022.04 1022.08 1022.15 1022.25 1022.37 1022.50 1022.63 1022.77 1022.91 1023.06 1023.21 1023.38 1023.58 1023.79 1024.02
1017.44 1017.38 1017.28 1017.17 1017.08 1017.04 1017.08 1017.22 1017.48 1017.87 1018.36 1018.94 1019.56 1020.17 1020.74 1021.24 1021.64 1021.94 1022.14 1022.26 1022.33 1022.37 1022.42 1022.48 1022.56 1022.68 1022.82 1022.97 1023.13 1023.29 1023.44 1023.59 1023.74 1023.89 1024.06 1024.24 1024.45 1024.68
1017.31 1017.30 1017.25 1017.18 1017.11 1017.08 1017.10 1017.23 1017.46 1017.81 1018.27 1018.81 1019.41 1020.03 1020.61 1021.13 1021.57 1021.92 1022.18 1022.36 1022.49 1022.59 1022.68 1022.79 1022.91 1023.06 1023.22 1023.40 1023.58 1023.76 1023.93 1024.09 1024.26 1024.43 1024.61 1024.81 1025.03 1025.28
1017.07 1017.11 1017.12 1017.10 1017.07 1017.06 1017.10 1017.21 1017.42 1017.73 1018.14 1018.63 1019.18 1019.76 1020.33 1020.85 1021.32 1021.70 1022.02 1022.26 1022.45 1022.62 1022.77 1022.92 1023.09 1023.27 1023.46 1023.66 1023.86 1024.05 1024.24 1024.44 1024.63 1024.83 1025.04 1025.27 1025.52 1025.78
1016.78 1016.86 1016.92 1016.96 1016.98 1017.01 1017.06 1017.16 1017.34 1017.60 1017.94 1018.36 1018.84 1019.36 1019.88 1020.39 1020.85 1021.27 1021.63 1021.94 1022.20 1022.43 1022.65 1022.87 1023.08 1023.30 1023.52 1023.75 1023.97 1024.19 1024.42 1024.64 1024.88 1025.12 1025.37 1025.63 1025.90 1026.18
1016.49 1016.60 1016.70 1016.78 1016.85 1016.91 1016.97 1017.07 1017.21 1017.41 1017.67 1018.01 1018.40 1018.83 1019.29 1019.76 1020.21 1020.64 1021.03 1021.40 1021.73 1022.03 1022.32 1022.60 1022.87 1023.13 1023.39 1023.65 1023.92 1024.17 1024.44 1024.71 1024.99 1025.27 1025.56 1025.85 1026.14 1026.42
1016.26 1016.38 1016.50 1016.61 1016.71 1016.79 1016.86 1016.94 1017.04 1017.18 1017.36 1017.60 1017.90 1018.25 1018.63 1019.04 1019.46 1019.88 1020.30 1020.70 1021.08 1021.45 1021.80 1022.13 1022.46 1022.77 1023.08 1023.38 1023.68 1023.99 1024.30 1024.61 1024.94 1025.26 1025.59 1025.90 1026.20 1026.47
1016.14 1016.25 1016.37 1016.48 1016.59 1016.67 1016.73 1016.79 1016.85 1016.93 1017.04 1017.20 1017.40 1017.66 1017.97 1018.32 1018.69 1019.10 1019.51 1019.93 1020.34 1020.75 1021.14 1021.52 1021.88 1022.24 1022.59 1022.93 1023.28 1023.62 1023.98 1024.34 1024.71 1025.07 1025.42 1025.75 1026.04 1026.30
1016.13 1016.21 1016.30 1016.40 1016.49 1016.56 1016.61 1016.64 1016.66 1016.69 1016.74 1016.83 1016.96 1017.14 1017.37 1017.66 1017.99 1018.35 1018.74 1019.15 1019.57 1019.98 1020.39 1020.79 1021.18 1021.56 1021.93 1022.31 1022.69 1023.07 1023.47 1023.87 1024.27 1024.66 1025.03 1025.37 1025.66 1025.90
1016.22 1016.26 1016.31 1016.37 1016.42 1016.46 1016.48 1016.49 1016.48 1016.48 1016.48 1016.52 1016.59 1016.71 1016.89 1017.12 1017.39 1017.70 1018.05 1018.42 1018.81 1019.20 1019.59 1019.98 1020.37 1020.75 1021.14 1021.53 1021.93 1022.35 1022.77 1023.21 1023.64 1024.05 1024.43 1024.78 1025.07 1025.30
1016.39 1016.37 1016.36 1016.37 1016.38 1016.38 1016.36 1016.34 1016.31 1016.28 1016.27 1016.27 1016.31 1016.39 1016.52 1016.69 1016.91 1017.16 1017.45 1017.76 1018.08 1018.42 1018.77 1019.12 1019.48 1019.84 1020.22 1020.62 1021.04 1021.47 1021.92 1022.37 1022.82 1023.25 1023.65 1024.00 1024.30 1024.53
1016.59 1016.50 1016.44 1016.39 1016.35 1016.30 1016.25 1016.20 1016.16 1016.12 1016.09 1016.08 1016.10 1016.15 1016.24 1016.36 1016.51 1016.69 1016.90 1017.13 1017.37 1017.63 1017.91 1018.20 1018.52 1018.86 1019.22 1019.61 1020.04 1020.48 1020.95 1021.42 1021.89 1022.33 1022.75 1023.11 1023.41 1023.67
1016.78 1016.65 1016.53 1016.43 1016.33 1016.24 1016.16 1016.09 1016.03 1015.98 1015.95 1015.93 1015.93 1015.96 1016.00 1016.06 1016.14 1016.24 1016.35 1016.48 1016.63 1016.80 1017.00 1017.23 1017.49 1017.80 1018.15 1018.54 1018.97 1019.43 1019.92 1020.41 1020.90 1021.36 1021.79 1022.17 1022.49 1022.77
1016.94 1016.78 1016.63 1016.48 1016.35 1016.22 1016.11 1016.02 1015.94 1015.88 1015.84 1015.81 1015.79 1015.77 1015.76 1015.76 1015.75 1015.75 1015.76 1015.78 1015.82 1015.90 1016.01 1016.18 1016.40 1016.68 1017.03 1017.43 1017.88 1018.38 1018.89 1019.42 1019.93 1020.42 1020.87 1021.27 1021.61 1021.92
1017.07 1016.91 1016.74 1016.57 1016.41 1016.26 1016.13 1016.02 1015.92 1015.84 1015.78 1015.72 1015.65 1015.58 1015.50 1015.40 1015.29 1015.18 1015.07 1014.98 1014.92 1014.90 1014.95 1015.07 1015.26 1015.54 1015.90 1016.33 1016.83 1017.37 1017.93 1018.50 1019.05 1019.57 1020.04 1020.47 1020.84 1021.17
1017.17 1017.03 1016.87 1016.70 1016.53 1016.37 1016.23 1016.10 1015.98 1015.88 1015.77 1015.66 1015.54 1015.39 1015.21 1015.00 1014.78 1014.54 1014.31 1014.11 1013.95 1013.85 1013.84 1013.93 1014.12 1014.41 1014.81 1015.29 1015.84 1016.44 1017.07 1017.69 1018.29 1018.85 1019.36 1019.81 1020.20 1020.56
1017.24 1017.14 1017.01 1016.86 1016.71 1016.56 1016.41 1016.27 1016.13 1015.99 1015.84 1015.66 1015.46 1015.21 1014.92 1014.60 1014.25 1013.88 1013.53 1013.22 1012.97 1012.81 1012.76 1012.83 1013.03 1013.36 1013.80 1014.35 1014.97 1015.64 1016.33 1017.02 1017.67 1018.28 1018.83 1019.30 1019.72 1020.09
1017.26 1017.22 1017.14 1017.04 1016.92 1016.78 1016.64 1016.50 1016.34 1016.17 1015.97 1015.72 1015.43 1015.09 1014.68 1014.24 1013.76 1013.28 1012.82 1012.40 1012.08 1011.87 1011.78 1011.85 1012.07 1012.44 1012.94 1013.55 1014.24 1014.99 1015.75 1016.50 1017.20 1017.85 1018.43 1018.94 1019.37 1019.75
1017.22 1017.24 1017.22 1017.17 1017.09 1016.99 1016.87 1016.73 1016.57 1016.37 1016.13 1015.83 1015.46 1015.03 1014.53 1013.98 1013.39 1012.81 1012.25 1011.76 1011.38 1011.12 1011.02 1011.09 1011.33 1011.73 1012.28 1012.95 1013.70 1014.50 1015.31 1016.11 1016.86 1017.54 1018.15 1018.67 1019.12 1019.51
Thickness
5729 5727 5724 5723 5721 5718 5715 5712 5705 5697 5693 5692 5691 5690 5689 5687 5686 5685 5684 5682 5681 5680 5679 5677 5676 5675 5674 5672 5671 5669 5667 5665 5663 5661 5659 5657 5655 5653
5726 5724 5722 5720 5718 5716 5713 5710 5707 5701 5693 5690 5688 5686 5685 5683 5681 5679 5678 5676 5675 5674 5672 5671 5669 5668 5667 5665 5664 5662 5660 5658 5656 5654 5651 5649 5647 5645
5724 5722 5719 5717 5715 5712 5710 5707 5704 5700 5693 5687 5684 5682 5680 5678 5675 5674 5672 5671 5669 5667 5666 5664 5663 5661 5660 5658 5656 5654 5652 5650 5648 5646 5644 5641 5639 5637
5721 5719 5716 5715 5712 5709 5706 5703 5700 5697 5693 5686 5680 5677 5674 5672 5670 5669 5667 5665 5663 5661 5660 5658 5656 5655 5653 5651 5649 5646 5644 5642 5640 5638 5636 5633 5631 5628
5718 5716 5713 5711 5707 5705 5702 5699 5696 5693 5689 5684 5677 5673 5670 5667 5665 5663 5661 5659 5658 5656 5654 5652 5650 5648 5646 5644 5641 5639 5637 5634 5632 5629 5627 5624 5622 5619
5715 5712 5710 5707 5704 5701 5697 5694 5691 5687 5683 5679 5673 5669 5666 5663 5660 5658 5656 5654 5652 5650 5648 5646 5644 5642 5639 5637 5634 5632 5629 5627 5624 5621 5618 5616 5613 5610
5710 5708 5706 5703 5700 5697 5694 5690 5686 5682 5678 5673 5669 5665 5661 5658 5656 5654 5651 5648 5646 5644 5642 5640 5638 5635 5633 5630 5627 5625 5622 5620 5616 5613 5610 5607 5604 5601
5705 5703 5701 5698 5695 5692 5689 5686 5683 5678 5674 5670 5665 5662 5658 5655 5652 5650 5646 5644 5641 5638 5636 5634 5631 5629 5626 5624 5621 5618 5616 5613 5610 5606 5603 5600 5596 5593
5700 5697 5695 5692 5689 5686 5683 5680 5677 5673 5671 5667 5663 5660 5657 5654 5649 5645 5642 5640 5637 5634 5630 5628 5625 5623 5620 5618 5615 5612 5609 5606 5603 5599 5595 5592 5589 5585
5695 5692 5688 5685 5683 5680 5677 5673 5670 5667 5665 5662 5660 5657 5655 5651 5647 5644 5639 5634 5631 5628 5625 5623 5619 5617 5615 5612 5609 5606 5603 5599 5596 5592 5588 5585 5581 5578
5688 5685 5683 5680 5677 5674 5671 5667 5663 5660 5658 5656 5654 5651 5649 5646 5642 5638 5633 5630 5627 5623 5619 5617 5614 5611 5608 5606 5604 5600 5597 5593 5589 5586 5582 5578 5574 5571
5683 5680 5677 5674 5671 5668 5665 5661 5657 5654 5652 5650 5647 5645 5642 5639 5637 5634 5631 5626 5622 5618 5614 5611 5608 5605 5603 5601 5597 5594 5590 5587 5583 5579 5576 5572 5568 5563
5678 5675 5672 5669 5665 5662 5659 5656 5653 5649 5646 5643 5640 5638 5635 5633 5630 5627 5624 5622 5618 5615 5611 5606 5603 5599 5597 5594 5591 5587 5584 5580 5576 5573 5569 5565 5561 5557
5674 5671 5667 5663 5660 5656 5653 5650 5646 5643 5639 5636 5633 5630 5628 5626 5624 5621 5618 5615 5612 5610 5606 5601 5598 5594 5591 5587 5585 5581 5578 5574 5570 5566 5563 5559 5555 5551
5670 5667 5662 5658 5654 5650 5647 5643 5639 5636 5633 5630 5627 5624 5621 5619 5617 5614 5611 5608 5605 5603 5600 5596 5593 5589 5586 5583 5579 5575 5572 5569 5564 5560 5557 5553 5549 5545
5664 5660 5656 5652 5649 5645 5640 5637 5633 5630 5626 5624 5621 5618 5615 5612 5609 5607 5605 5602 5599 5597 5594 5591 5587 5583 5580 5577 5573 5570 5566 5562 5559 5555 5551 5547 5543 5540
5657 5653 5649 5645 5642 5638 5634 5630 5627 5623 5620 5617 5614 5611 5608 5605 5603 5599 5597 5594 5592 5591 5588 5584 5580 5577 5574 5570 5567 5564 5561 5557 5554 5549 5544 5542 5539 5535
5651 5647 5644 5641 5637 5634 5630 5626 5622 5619 5615 5612 5608 5605 5602 5599 5596 5593 5590 5587 5586 5584 5581 5577 5572 5569 5566 5564 5561 5558 5555 5551 5548 5543 5538 5536 5535 5531
5646 5643 5640 5636 5632 5628 5625 5622 5618 5615 5610 5607 5604 5600 5597 5594 5590 5587 5583 5580 5578 5577 5574 5570 5566 5563 5561 5560 5558 5552 5549 5545 5541 5537 5533 5530 5528 5526
5641 5639 5635 5632 5627 5623 5620 5616 5613 5610 5606 5602 5598 5595 5591 5588 5584 5581 5578 5574 5572 5569 5566 5563 5560 5557 5555 5553 5551 5547 5542 5538 5535 5532 5529 5524 5521 5517
5638 5635 5632 5627 5623 5619 5615 5611 5607 5604 5600 5596 5593 5589 5585 5581 5578 5575 5572 5567 5564 5562 5560 5558 5555 5551 5547 5543 5542 5541 5537 5532 5529 5525 5521 5518 5515 5512
5635 5631 5628 5623 5619 5614 5610 5606 5601 5598 5594 5590 5587 5583 5579 5575 5572 5568 5565 5562 5559 5557 5554 5551 5547 5543 5540 5538 5537 5534 5531 5526 5521 5517 5514 5511 5508 5506
5632 5627 5623 5619 5614 5610 5605 5601 5597 5593 5589 5585 5582 5578 5574 5569 5566 5563 5560 5556 5553 5550 5546 5543 5540 5537 5535 5532 5530 5527 5523 5520 5516 5512 5508 5504 5501 5497